Regional Weather Roundup
Issued by NWS

Home | Current Version | Previous Version | Text Only | Print | Product List | Glossary Off
Versions: 1 2 3 4 5 6 7 8 9 10 11 12 13 14 15 16 17 18 19 20 21 22 23 24 25 26 27 28 29 30 31 32 33 34 35 36 37 38 39 40 41 42 43 44 45 46 47 48 49 50

000
ASUS43 KDTX 241810
RWRMI
MICHIGAN HOURLY REGIONAL WEATHER ROUNDUP
NATIONAL WEATHER SERVICE DETROIT/PONTIAC MI
200 PM EDT FRI OCT 24 2014

NOTE: "FAIR" INDICATES FEW OR NO CLOUDS BELOW 12,000 FEET WITH NO
SIGNIFICANT WEATHER AND/OR OBSTRUCTION TO VISIBILITY.

MIZ047>049-052>055-059>063-066>070-074>076-081>083-241900-
SOUTHEAST LOWER MICHIGAN

CITY           SKY/WX    TMP DP  RH WIND       PRES   REMARKS
ADRIAN         CLOUDY    56  45  66 SW7       30.04F
6HR MIN TEMP:  32; 6HR MAX TEMP:  56;

ALMA           CLOUDY    58  49  71 SW8       29.99F
ANN ARBOR      CLOUDY    60  42  51 MISG      30.02F
BAD AXE        CLOUDY    56  47  72 SW5       30.00F
6HR MIN TEMP:  32; 6HR MAX TEMP:  56;

DETROIT CITY   PTSUNNY   62  43  49 W7        30.03F
6HR MIN TEMP:  38; 6HR MAX TEMP:  62;

DETROIT        PTSUNNY   60  43  53 SW9       30.03F
6HR MIN TEMP:  37; 6HR MAX TEMP:  60;

FLINT          CLOUDY    59  46  62 VRB3      30.02F
6HR MIN TEMP:  35; 6HR MAX TEMP:  59;

GROSSE ILE     CLOUDY    55  48  76 S9        30.02F HAZE
HILLSDALE      CLOUDY    56  46  70 CALM      30.03F
6HR MIN TEMP:  37; 6HR MAX TEMP:  56;

HOWELL         CLOUDY    57  45  63 S6        30.02F
6HR MIN TEMP:  35; 6HR MAX TEMP:  57;


CITY           SKY/WX    TMP DP  RH WIND       PRES   REMARKS
JACKSON        CLOUDY    57  46  66 W6        30.03F
6HR MIN TEMP:  36; 6HR MAX TEMP:  57;

LAMBERTVILLE   CLOUDY    61  43  51 W5        30.04F
LANSING        CLOUDY    59  48  67 SW12      30.01F
6HR MIN TEMP:  44; 6HR MAX TEMP:  59;

LAPEER         NOT AVBL
MASON          CLOUDY    57  47  69 CALM      30.01F
MONROE         CLOUDY    59  45  58 W9        30.03F
MT. CLEMENS    MOSUNNY   62  42  48 W5        30.00F
6HR MIN TEMP:  35; 6HR MAX TEMP:  62;

PONTIAC        PTSUNNY   56  42  59 S7        30.01F
6HR MIN TEMP:  36; 6HR MAX TEMP:  57;

PORT HOPE        N/A     56  45  66 VRB3      29.98F
6HR MIN TEMP:  42; 6HR MAX TEMP:  56;

PORT HURON     MOSUNNY   59  43  55 SW5       30.02F
TRI CITIES     PTSUNNY   59  47  64 SW8       29.99F
6HR MIN TEMP:  41; 6HR MAX TEMP:  59;

YPSILANTI      CLOUDY    64  43  46 SW8       30.03F
$$
MIZ043>046-050>051-056>058-064>065-071>073-077>080-241900-
SOUTHWEST LOWER MICHIGAN

CITY           SKY/WX    TMP DP  RH WIND       PRES   REMARKS
BATTLE CREEK   CLOUDY    60  48  64 S7        30.02F
6HR MIN TEMP:  47; 6HR MAX TEMP:  60;

BENTON HARBOR  PTSUNNY   57  49  74 SW8       30.02F
6HR MIN TEMP:  47; 6HR MAX TEMP:  58;

BIG RAPIDS     CLOUDY    54  53  98 W7        29.99F FOG
6HR MIN TEMP:  45; 6HR MAX TEMP:  54;

COLDWATER      CLOUDY    58  48  70 SW7       30.03F
6HR MIN TEMP:  47; 6HR MAX TEMP:  58;

HOLLAND        PTSUNNY   59  51  75 W13       30.03F
6HR MIN TEMP:  51; 6HR MAX TEMP:  61;

GRAND RAPIDS   PTSUNNY   60  50  69 SW12      30.01F
6HR MIN TEMP:  50; 6HR MAX TEMP:  62;

KALAMAZOO      MOSUNNY   60  48  64 S6        30.02F
6HR MIN TEMP:  48; 6HR MAX TEMP:  60;

MARSHALL       CLOUDY    57  47  70 SW5       30.02F
MUSKEGON       CLOUDY    55  49  80 SW9       30.02F
6HR MIN TEMP:  54; 6HR MAX TEMP:  56;

$$
MIZ016>042-241900-
NORTHERN LOWER MICHIGAN

CITY           SKY/WX    TMP DP  RH WIND       PRES   REMARKS
ALPENA         CLOUDY    56  46  69 VRB5      29.96F
6HR MIN TEMP:  42; 6HR MAX TEMP:  56;

BEAVER ISLAND  CLOUDY    53  49  86 SW10G16   29.96F
6HR MIN TEMP:  51; 6HR MAX TEMP:  54;

BELLAIRE       CLOUDY    54  49  83 SW3       29.97F
CADILLAC       CLOUDY    51  49  93 W8        29.98F
CHARLEVOIX     CLOUDY    54  51  89 W13       30.00S
6HR MIN TEMP:  50; 6HR MAX TEMP:  54;

FRANKFORT      CLOUDY    52  48  86 W6        29.99F
GAYLORD        CLOUDY    51  47  86 SW9       29.96F
6HR MIN TEMP:  44; 6HR MAX TEMP:  51;

GRAYLING       CLOUDY    54  49  82 W3        29.98F
6HR MIN TEMP:  42; 6HR MAX TEMP:  54;

HARBOR SPRINGS CLOUDY    54  49  85 SW7       29.96F FOG
HOUGHTON LAKE  CLOUDY    51  48  89 SW6       29.98F
6HR MIN TEMP:  42; 6HR MAX TEMP:  52;

OSCODA         CLOUDY    55  46  72 SW7       29.97F
PELLSTON       CLOUDY    54  48  80 SW8       29.96F
6HR MIN TEMP:  42; 6HR MAX TEMP:  54;

TRAVERSE CITY  CLOUDY    54  48  80 W6        29.97F
6HR MIN TEMP:  50; 6HR MAX TEMP:  54; 6HR PCP: TRACE;

$$
MIZ007>008-015-241900-
EASTERN UPPER MICHIGAN

CITY           SKY/WX    TMP DP  RH WIND       PRES   REMARKS
KINROSS        CLOUDY    52  50  93 SW5       29.94F
6HR MIN TEMP:  45; 6HR MAX TEMP:  52;

MACKINAC ISLAN CLOUDY    52  50  93 W8        29.95S FOG
6HR MIN TEMP:  48; 6HR MAX TEMP:  52;

NEWBERRY       CLOUDY    49  47  92 SW17      29.93F
S. S. MARIE    CLOUDY    51  47  86 SW5       29.93F
6HR MIN TEMP:  43; 6HR MAX TEMP:  51;

$$
MIZ004>006-011>014-085-241900-
CENTRAL UPPER MICHIGAN

CITY           SKY/WX    TMP DP  RH WIND       PRES   REMARKS
MANISTIQUE     CLOUDY    49  48  97 S7        29.94F
ESCANABA       CLOUDY    48  45  87 S3        29.94F
6HR MIN TEMP:  45; 6HR MAX TEMP:  48;

MENOMINEE      CLOUDY    48  45  87 W5        29.95F
6HR MIN TEMP:  46; 6HR MAX TEMP:  48;

SAWYER-GWINN   PTSUNNY   48  46  93 SW9       29.91F
$$
MIZ001>003-009>011-084-241900-
WESTERN UPPER MICHIGAN

CITY           SKY/WX    TMP DP  RH WIND       PRES   REMARKS
IRON MOUNTAIN  PTSUNNY   52  47  83 SE6       29.91F
6HR MIN TEMP:  43; 6HR MAX TEMP:  52;

HOUGHTON       PTSUNNY   56  46  69 S8        29.84F
6HR MIN TEMP:  45; 6HR MAX TEMP:  56;

COPPER HARBOR    N/A     48  45  89 SW9G21    29.83F
6HR MIN TEMP:  46; 6HR MAX TEMP:  49;

IRONWOOD       MOSUNNY   61  46  59 S12       29.82F
6HR MIN TEMP:  46; 6HR MAX TEMP:  61;

$$

ABBREVIATIONS USED IN REMARKS
   TC - TEMPERATURE IN CELSIUS
  WCI - WIND CHILL INDEX
   HX - HEAT INDEX
  VSB - VISIBILITY




USA.gov is the U.S. government's official web portal to all federal, state and local government web resources and services.